Observations for Trim Market St
| Time | AQI | Temp °C | Hum % | Pres Pa | CO μg/m³ | H₂S μg/m³ | NO μg/m³ | NO₂ μg/m³ | O₃ μg/m³ | SO₂ μg/m³ | PM1 μg/m³ | PM2.5 μg/m³ | PM10 μg/m³ |
|---|---|---|---|---|---|---|---|---|---|---|---|---|---|
| Tuesday 18 August 2026 | |||||||||||||
| 02:35 | 2 | 19.2 | 78 | 2,002 | 0.01 | 0 | 1.87 | 2.13 | 52.66 | 0 | 0.71 | 1.74 | 4.05 |
| 02:34 | 2 | 19.1 | 78 | 869 | 0.02 | 0 | 1.88 | 2.25 | 51.33 | 0 | 0 | 2.21 | 4.63 |
| 02:33 | 2 | 19.2 | 78 | 2,147,483,647 | 0.02 | 0 | 1.86 | 1.85 | 51.82 | 0 | 0.71 | 2.21 | 5.79 |
| 02:32 | 2 | 19.2 | 78 | 2,147,483,647 | 0.02 | 0 | 1.87 | 2.2 | 56.8 | 0 | 0.71 | 2.21 | 4.63 |
| 02:31 | 2 | 19.2 | 78 | 2,147,483,647 | 0.02 | 0 | 1.86 | 2.03 | 49.19 | 0 | 0.71 | 1.25 | 3.48 |
| 02:30 | 2 | 19.2 | 78 | 2,147,483,647 | 0.02 | 0 | 1.85 | 2.06 | 53.4 | 0 | 0 | 1.72 | 4.06 |
| 02:29 | 2 | 19.2 | 78 | 2,147,483,647 | 0.02 | 0 | 1.87 | 2.09 | 54.46 | 0 | 0.71 | 2.67 | 5.22 |
| 02:28 | 2 | 19.2 | 78 | 2,147,483,647 | 0.03 | 0 | 1.87 | 2.02 | 52.56 | 0 | 0 | 1.72 | 4.06 |
| 02:27 | 2 | 19.2 | 78 | 2,147,483,647 | 0.02 | 0 | 1.88 | 2.02 | 56.83 | 0 | 0.71 | 2.67 | 5.22 |
| 02:26 | 2 | 19.2 | 78 | 2,147,483,647 | 0.03 | 0 | 1.88 | 2.03 | 51.72 | 0 | 0.71 | 2.67 | 6.95 |
| 02:25 | 2 | 19.2 | 78 | 2,147,483,647 | 0.03 | 0 | 1.88 | 1.68 | 52.78 | 0 | 1.43 | 2.67 | 5.22 |
| 02:23 | 2 | 19.2 | 78 | 2,147,483,647 | 0.03 | 0 | 1.88 | 1.84 | 52.42 | 0 | 0.71 | 2.66 | 5.22 |
| 02:22 | 2 | 19.2 | 78 | 2,147,483,647 | 0.02 | 0 | 1.87 | 1.84 | 52.42 | 0 | 0.71 | 1.71 | 4.07 |
| 02:21 | 2 | 19.3 | 78 | 2,147,483,647 | 0.02 | 0 | 1.9 | 1.73 | 51.8 | 0 | 0 | 1.71 | 4.07 |
| 02:20 | 2 | 19.3 | 78 | 2,147,483,647 | 0.02 | 0 | 1.9 | 1.69 | 58.83 | 0 | 0.71 | 2.18 | 5.22 |
| 02:19 | 2 | 19.3 | 78 | 2,147,483,647 | 0.03 | 0 | 1.9 | 1.73 | 52.45 | 0 | 0.71 | 2.18 | 4.65 |
| 02:17 | 2 | 19.3 | 78 | 2,147,483,647 | 0.03 | 0 | 1.91 | 1.69 | 52.66 | 0 | 0 | 1.71 | 4.07 |
| 02:16 | 2 | 19.3 | 78 | 2,147,483,647 | 0.01 | 0 | 1.91 | 1.65 | 51.26 | 0 | 0.71 | 1.71 | 5.23 |
| 02:15 | 2 | 19.3 | 78 | 2,147,483,647 | 0.02 | 0 | 1.9 | 1.62 | 57.52 | 0 | 0.71 | 2.18 | 4.65 |
| 02:14 | 2 | 19.3 | 78 | 2,147,483,647 | 0.04 | 0 | 1.91 | 1.56 | 52.4 | 0 | 0.71 | 1.71 | 4.65 |